Flag for Greece Weather past 2 weeks in Kallithea, Greece

Now
55 °F

Passing clouds.


Feels Like: 53 °F
Forecast: 44 / 53 °F
Wind: 8 mph from Northeast

Location: Elefsis Airport

Current Time: Dec 21, 2014 at 7:25:50 PM

Latest Report: Dec 21, 2014 at 6:50 PM


Visibility: N/A

Pressure: 30.15 "Hg

Humidity: 44%

Dew point: 34 °F

Location of KallitheaLocation

Historic Weather in Kallithea — Graph

°F

Kallithea temperature yesterday

Maximum temperature yesterday: 64 °F (at 3:20 PM)
Minimum temperature yesterday: 41 °F (at 6:20 AM)
Average temperature yesterday: 50 °F

Past Weeks' High & Low Weather Summary

 TemperatureHumidityPressure
High66 °F (Dec 7, 2:50 PM)100% (Dec 8, 9:20 AM)30.30 "Hg (Dec 8, 9:20 AM)
Low41 °F (Dec 14, 5:20 AM)37% (Dec 21, 2:20 PM)29.59 "Hg (Dec 8, 11:50 PM)
Average54 °F79%30.02 "Hg
* Reported Dec 6 5:20 PM — Dec 21 5:50 PM, Kallithea, Weather by CustomWeather, © 2014

Note: Actual official high and low records may vary slightly from our data, if they occured in-between our weather recording intervals... More about our weather records

Advertising

Kallithea weather history for previous 24 hours

 ConditionsComfort  
Time TempWeatherWind HumidityBarometerVisibility
5:50 PM
Dec 21
55 °FPassing clouds.6 mph51%30.12 "HgN/A
5:20 PM55 °FPassing clouds.14 mph51%30.12 "HgN/A
4:50 PM57 °FPassing clouds.15 mph55%30.12 "HgN/A
4:20 PM57 °FPassing clouds.15 mph59%30.09 "HgN/A
3:50 PM63 °FScattered clouds.15 mph45%30.07 "HgN/A
3:20 PM64 °FPassing clouds.10 mph43%30.07 "HgN/A
2:50 PM64 °FPassing clouds.12 mph40%30.04 "HgN/A
2:20 PM64 °FPassing clouds.14 mph37%30.04 "HgN/A
1:50 PM64 °FPassing clouds.13 mph49%30.04 "HgN/A
1:20 PM64 °FScattered clouds.14 mph46%30.04 "HgN/A
12:50 PM64 °FScattered clouds.No wind52%30.04 "HgN/A
12:20 PM64 °FScattered clouds.3 mph49%30.04 "HgN/A
11:50 AM63 °FScattered clouds.No wind56%30.07 "HgN/A
11:20 AM61 °FScattered clouds.5 mph59%30.07 "HgN/A
10:20 AM57 °FPartly sunny.5 mph77%30.07 "HgN/A
9:50 AM52 °FBroken clouds.No wind88%30.07 "HgN/A
9:20 AM50 °FBroken clouds.No wind88%30.07 "HgN/A
8:50 AM48 °FPartly sunny.No wind87%30.07 "HgN/A
8:20 AM46 °FScattered clouds.5 mph87%30.07 "HgN/A
7:50 AM43 °FPassing clouds.No wind93%30.07 "HgN/A
7:20 AM43 °FPassing clouds.No wind93%30.07 "HgN/A
6:50 AM43 °FPassing clouds.No wind93%30.07 "HgN/A
6:20 AM45 °FPassing clouds.No wind87%30.07 "HgN/A
5:50 AM45 °FPassing clouds.No wind87%30.07 "HgN/A
5:20 AM45 °FPassing clouds.No wind93%30.07 "HgN/A
4:50 AM46 °FClear.No wind87%30.07 "Hg10 mi
4:20 AM45 °FClear.No wind93%30.09 "Hg10 mi
3:50 AM45 °FClear.No wind93%30.09 "Hg10 mi
3:20 AM46 °FClear.No wind82%30.09 "Hg10 mi
2:20 AM46 °FClear.No wind87%30.09 "Hg10 mi
1:50 AM46 °FClear.No wind87%30.09 "Hg10 mi
1:20 AM48 °FClear.No wind87%30.12 "Hg10 mi
12:50 AM46 °FClear.No wind87%30.12 "Hg10 mi
12:20 AM48 °FClear.No wind82%30.12 "Hg10 mi
11:20 PM
Dec 20
48 °FClear.No wind87%30.12 "Hg10 mi
10:50 PM46 °FClear.No wind87%30.12 "Hg10 mi
10:20 PM46 °FClear.No wind87%30.12 "Hg10 mi
9:50 PM48 °FClear.No wind82%30.12 "Hg10 mi
9:20 PM52 °FClear.No wind77%30.12 "Hg10 mi
8:50 PM48 °FClear.No wind87%30.12 "Hg10 mi
8:20 PM50 °FClear.No wind82%30.12 "Hg10 mi
7:50 PM50 °FClear.No wind82%30.12 "Hg10 mi
7:20 PM52 °FClear.No wind77%30.12 "Hg10 mi
Weather by CustomWeather, © 2014

See weather overviewHow to use our weather pages